OBERSTADN Weather Reports


Display with metric or nautical units.
time (UTC)temp
F
wind
direction
speed
MPH
gust
MPH
rain 1hr
in
rain 24hr
in
rain mn
in
humidity
%
barometer
mb
20260504060212 50 355 0.0 0.0 0.00 0.00 0.00 83 1014.5
20260504050210 45 172 2.0 0.0 0.00 0.00 0.00 84 1014.7
20260504043211 45 173 2.0 0.0 0.00 0.00 0.00 83 1014.7
20260504040211 46 308 3.0 0.0 0.00 0.00 0.00 80 1014.7
20260504033211 47 218 3.0 0.0 0.00 0.00 0.00 80 1014.8
20260504030212 48 125 0.0 0.0 0.00 0.00 0.00 80 1014.8
20260504023211 48 125 1.0 0.0 0.00 0.00 0.00 80 1014.9
20260504020212 49 11 2.0 0.0 0.00 0.00 0.00 78 1014.9
20260504013211 49 11 2.0 0.0 0.00 0.00 0.00 76 1014.8
20260504010211 50 72 0.0 0.0 0.00 0.00 0.00 74 1015.0
20260504003210 50 72 2.0 0.0 0.00 0.00 0.00 73 1015.3
20260504000208 51 114 3.0 0.0 0.00 0.00 0.00 72 1015.2
20260503233209 52 101 0.0 0.0 0.00 0.00 0.00 71 1015.4
20260503230209 52 162 1.0 0.0 0.00 0.00 0.00 69 1015.5
20260503223210 53 238 3.0 0.0 0.00 0.00 0.00 69 1015.6
20260503213210 57 79 2.0 0.0 0.00 0.00 0.00 57 1015.3
20260503210211 59 220 4.0 0.0 0.00 0.00 0.00 51 1014.9
20260503203209 61 275 5.0 0.0 0.00 0.00 0.00 49 1014.6
20260503200211 63 255 7.0 0.0 0.00 0.00 0.00 45 1014.4
20260503193210 64 255 8.0 0.0 0.00 0.00 0.00 43 1014.1
20260503190210 65 293 12.0 0.0 0.00 0.00 0.00 43 1013.4
20260503183209 65 323 5.0 0.0 0.00 0.00 0.00 54 1012.7
20260503180210 67 316 7.0 0.0 0.00 0.00 0.00 52 1012.7
20260503173209 69 327 8.0 0.0 0.00 0.00 0.00 53 1012.5
20260503170211 74 322 8.0 0.0 0.00 0.00 0.00 41 1012.5
20260503160211 79 269 11.0 0.0 0.00 0.00 0.00 25 1012.1
20260503150209 79 249 10.0 0.0 0.00 0.00 0.00 25 1012.2
20260503140210 79 234 13.0 0.0 0.00 0.00 0.00 32 1012.7
20260503130210 76 267 11.0 0.0 0.00 0.00 0.00 37 1013.5
20260503120210 75 301 9.0 0.0 0.00 0.00 0.00 35 1013.8
20260503110210 75 304 4.0 0.0 0.00 0.00 0.00 35 1014.2
20260503100212 73 310 7.0 0.0 0.00 0.00 0.00 37 1014.8
20260503090210 66 342 3.0 0.0 0.00 0.00 0.00 57 1015.5
20260503080212 61 340 3.0 0.0 0.00 0.00 0.00 71 1015.8
20260503070211 54 351 3.0 0.0 0.00 0.00 0.00 76 1015.9